Location: Lane
(33.5226°N, 79.8788°W)
Time: 13:45:49
(UTC+00:00)

Explorer 7 - Pass Details

Date: 06 October 2022
Orbit: 481 x 665 km, 50.3° (Epoch: 26 November)

Event Time Altitude Azimuth Distance (km) Brightness Sun altitude
Rises 14:40:37 0° 249° (WSW) 2,968 10.3 37.9°
Reaches altitude 10° 14:43:05 10° 258° (WSW) 2,072 9.6 38.3°
Maximum altitude 14:47:33 38° 326° (NW) 1,018 8.1 39.0°
Drops below altitude 10° 14:52:04 10° 35° (NE) 2,083 9.8 39.7°
Sets 14:54:33 0° 43° (NE) 2,986 10.6 40.0°
